Regional Weather Roundup
Issued by NWS

Home | Current Version | Previous Version | Graphics & Text | Print | Product List | Glossary On
Versions: 1 2 3 4 5 6 7 8 9 10 11 12 13 14 15 16 17 18 19 20 21 22 23 24 25 26 27 28 29 30 31 32 33 34 35 36 37 38 39 40 41 42 43 44 45 46 47 48 49 50
000
ASUS43 KLSX 272007
RWRMO

WEATHER SUMMARY FOR MISSOURI
NATIONAL WEATHER SERVICE SPRINGFIELD MO
300 PM CDT SAT MAY 27 2017

NOTE: "FAIR" INDICATES FEW OR NO CLOUDS BELOW 12,000 FEET WITH NO
       SIGNIFICANT WEATHER AND/OR OBSTRUCTIONS TO VISIBILITY.
       CURRENT SKY AND/OR WEATHER CONDITIONS ARE NOT AVAILABLE FOR
       CHILLICOTHE AND FARMINGTON.

MOZ001>031-035>038-043-044-053-054-272100-
...NORTHERN AND WESTERN MISSOURI...

CITY           SKY/WX    TMP DP  RH WIND       PRES   REMARKS
KANSAS CTY INT PTSUNNY   69  62  78 SW9       29.83R
KANSAS C DTWN  CLOUDY    69  62  78 N5        29.80R
LEE`S SUMMIT   CLOUDY    67  60  78 E6        29.81R
ST JOSEPH      CLOUDY    72  66  81 NE3       29.80R
CHILLICOTHE      N/A     71  62  73 N5        29.78F
KIRKSVILLE     CLOUDY    79  61  53 SE12      29.82F

$$
MOZ066>068-077>081-088>096-101>105-272100-
...SOUTHWEST MISSOURI...

CITY           SKY/WX    TMP DP  RH WIND       PRES   REMARKS
SPRINGFIELD    TSTM      65  63  93 NW14G24   29.80R VSB 3/4
JOPLIN         CLOUDY    80  73  79 E7        29.74F
BRANSON        PTSUNNY   82  70  65 S8        29.79F

$$
MOZ032>034-039>042-045>050-055>058-069>072-272100-
...CENTRAL MISSOURI...

CITY           SKY/WX    TMP DP  RH WIND       PRES   REMARKS
COLUMBIA       CLOUDY    69  67  93 N6        29.86F THUNDER
JEFFERSON CITY TSTM      72  67  84 CALM      29.83F
ROLLA          CLOUDY    74  66  76 SE6       29.83F
SEDALIA        LGT RAIN  63  61  93 E12       29.82F
WARRENSBURG    CLOUDY    61  59  94 E6        29.79S
OSAGE BEACH    LGT RAIN  75  70  83 E3        29.81F

$$
MOZ051-052-059>065-272100-
...EAST CENTRAL MISSOURI...

CITY           SKY/WX    TMP DP  RH WIND       PRES   REMARKS
ST LOUIS INTL  TSTM      79  65  62 N8        29.86R
SPIRIT OF STL  CLOUDY    71  70  96 SW5       29.86S
ST CHARLES     CLOUDY    78  66  66 NE8       29.85R

$$
MOZ072>076-082>087-097>100-106>115-272100-
...SOUTH CENTRAL AND SOUTHEAST MISSOURI...

CITY           SKY/WX    TMP DP  RH WIND       PRES   REMARKS
CAPE GIRARDEAU CLOUDY    83  69  62 S6        29.83F
FARMINGTON     CLOUDY    64  63  96 SW9       29.91R THUNDER
POPLAR BLUFF   MOSUNNY   83  74  74 S3        29.83F
WEST PLAINS    CLOUDY    84  72  67 S12       29.81F

$$



USA.gov is the U.S. government's official web portal to all federal, state and local government web resources and services.